Time,TemperatureF,DewpointF,PressureIn,WindDirection,WindDirectionDegrees,WindSpeedMPH,WindSpeedGustMPH,Humidity,HourlyPrecipIn,Conditions,Clouds,dailyrainin,SoftwareType,DateUTC
2013-03-24 00:03:00,50.4,47.5,29.59,WNW,291,17.5,21.9,90,0.00,RA,,0.00,WeatherDisplay:10.37,2013-03-24 05:03:00,
2013-03-24 00:08:00,50.4,47.8,29.58,NW,313,12.4,18.4,91,0.00,RA,,0.00,WeatherDisplay:10.37,2013-03-24 05:08:00,
2013-03-24 00:14:00,50.2,47.7,29.57,North,358,8.0,10.4,91,0.00,OVC,,0.00,WeatherDisplay:10.37,2013-03-24 05:14:00,
2013-03-24 00:19:00,50.0,47.5,29.54,NNW,335,14.0,18.4,91,0.00,OVC,,0.00,WeatherDisplay:10.37,2013-03-24 05:19:00,
2013-03-24 00:24:00,50.0,47.5,29.54,NW,313,12.4,18.4,91,0.01,RA,,0.01,WeatherDisplay:10.37,2013-03-24 05:24:00,
2013-03-24 00:29:00,50.0,47.5,29.55,NW,313,13.8,17.7,91,0.01,RA,,0.01,WeatherDisplay:10.37,2013-03-24 05:29:00,
2013-03-24 00:34:00,49.8,47.3,29.54,North,358,15.0,21.9,91,0.01,OVC,,0.01,WeatherDisplay:10.37,2013-03-24 05:34:00,
2013-03-24 00:39:00,49.6,46.8,29.55,North,358,12.2,18.4,90,0.01,OVC,,0.01,WeatherDisplay:10.37,2013-03-24 05:39:00,
2013-03-24 00:44:00,49.6,46.8,29.56,NNW,335,15.1,18.4,90,0.01,OVC,,0.01,WeatherDisplay:10.37,2013-03-24 05:44:00,
2013-03-24 00:49:00,49.6,46.8,29.59,NW,313,11.6,16.1,90,0.01,OVC,,0.01,WeatherDisplay:10.37,2013-03-24 05:49:00,
2013-03-24 00:54:00,49.6,46.5,29.59,NW,313,12.0,13.8,89,0.01,OVC,,0.01,WeatherDisplay:10.37,2013-03-24 05:54:00,
2013-03-24 00:59:00,49.5,46.4,29.58,NW,313,15.4,19.6,89,0.01,OVC,,0.01,WeatherDisplay:10.37,2013-03-24 05:59:00,
2013-03-24 01:04:00,49.3,45.9,29.58,NNW,335,17.0,23.0,88,0.01,-RA,,0.01,WeatherDisplay:10.37,2013-03-24 06:04:00,
2013-03-24 01:09:00,49.1,45.4,29.58,NW,313,16.0,24.2,87,0.01,-RA,,0.01,WeatherDisplay:10.37,2013-03-24 06:09:00,
2013-03-24 01:14:00,48.9,45.2,29.58,NW,313,17.1,18.4,87,0.01,-RA,,0.01,WeatherDisplay:10.37,2013-03-24 06:14:00,
2013-03-24 01:19:00,48.7,44.7,29.58,NW,313,13.3,23.0,86,0.01,-RA,,0.01,WeatherDisplay:10.37,2013-03-24 06:19:00,
2013-03-24 01:24:00,48.6,44.9,29.58,NNW,335,9.6,11.5,87,0.00,-RA,,0.01,WeatherDisplay:10.37,2013-03-24 06:24:00,
2013-03-24 01:29:00,48.6,44.9,29.59,NW,313,9.4,12.0,87,0.00,-RA,,0.01,WeatherDisplay:10.37,2013-03-24 06:29:00,
2013-03-24 01:34:00,48.6,45.2,29.59,North,358,12.0,12.7,88,0.00,-RA,,0.01,WeatherDisplay:10.37,2013-03-24 06:34:00,
2013-03-24 01:39:00,48.4,44.7,29.59,NW,313,12.3,16.1,87,0.00,-RA,,0.01,WeatherDisplay:10.37,2013-03-24 06:39:00,
2013-03-24 01:44:00,48.2,43.9,29.59,NW,313,12.6,17.3,85,0.00,-RA,,0.01,WeatherDisplay:10.37,2013-03-24 06:44:00,
2013-03-24 01:49:00,48.0,43.7,29.59,NNW,335,11.6,19.6,85,0.00,-RA,,0.01,WeatherDisplay:10.37,2013-03-24 06:49:00,
2013-03-24 01:54:00,48.0,43.7,29.62,WNW,291,11.8,15.5,85,0.00,-RA,,0.01,WeatherDisplay:10.37,2013-03-24 06:54:00,
2013-03-24 01:59:00,47.8,43.5,29.61,NW,313,13.5,21.3,85,0.00,-RA,,0.01,WeatherDisplay:10.37,2013-03-24 06:59:00,
2013-03-24 02:04:00,47.7,43.4,29.61,North,358,14.8,18.4,85,0.01,RA,,0.03,WeatherDisplay:10.37,2013-03-24 07:04:00,
2013-03-24 02:09:00,47.3,43.3,29.61,NW,313,12.1,15.3,86,0.02,RA,,0.03,WeatherDisplay:10.37,2013-03-24 07:09:00,
2013-03-24 02:14:00,47.1,43.4,29.61,NNW,335,10.0,16.1,87,0.02,RA,,0.03,WeatherDisplay:10.37,2013-03-24 07:14:00,
2013-03-24 02:19:00,47.1,43.1,29.61,NNW,335,12.9,17.3,86,0.02,OVC,,0.03,WeatherDisplay:10.37,2013-03-24 07:19:00,
2013-03-24 02:24:00,47.1,43.1,29.61,NW,313,11.1,19.6,86,0.02,OVC,,0.03,WeatherDisplay:10.37,2013-03-24 07:24:00,
2013-03-24 02:29:00,47.1,43.4,29.60,NW,313,11.9,13.8,87,0.02,OVC,,0.03,WeatherDisplay:10.37,2013-03-24 07:29:00,
2013-03-24 02:34:00,47.1,43.4,29.61,NW,313,10.2,16.1,87,0.02,OVC,,0.03,WeatherDisplay:10.37,2013-03-24 07:34:00,
2013-03-24 02:39:00,47.1,43.4,29.60,West,268,8.3,11.5,87,0.02,OVC,,0.03,WeatherDisplay:10.37,2013-03-24 07:39:00,
2013-03-24 02:44:00,46.9,43.3,29.60,NNW,335,8.7,17.3,87,0.02,OVC,,0.03,WeatherDisplay:10.37,2013-03-24 07:44:00,
2013-03-24 02:49:00,46.9,43.0,29.61,NW,313,12.9,15.0,86,0.02,OVC,,0.03,WeatherDisplay:10.37,2013-03-24 07:49:00,
2013-03-24 02:54:00,46.8,42.5,29.61,WNW,291,12.4,16.0,85,0.02,OVC,,0.03,WeatherDisplay:10.37,2013-03-24 07:54:00,
2013-03-24 03:00:00,46.6,42.3,29.61,NNW,335,9.9,13.8,85,0.02,OVC,,0.03,WeatherDisplay:10.37,2013-03-24 08:00:00,
2013-03-24 03:05:00,46.4,41.8,29.62,NW,313,15.3,19.6,84,0.01,OVC,,0.03,WeatherDisplay:10.37,2013-03-24 08:05:00,
2013-03-24 03:10:00,46.2,41.3,29.62,West,268,14.3,23.0,83,0.00,OVC,,0.03,WeatherDisplay:10.37,2013-03-24 08:10:00,
2013-03-24 03:15:00,46.0,41.5,29.62,NNW,335,13.0,19.6,84,0.00,OVC,,0.03,WeatherDisplay:10.37,2013-03-24 08:15:00,
2013-03-24 03:20:00,45.9,41.3,29.62,WNW,291,15.5,19.6,84,0.00,OVC,,0.03,WeatherDisplay:10.37,2013-03-24 08:20:00,
2013-03-24 03:25:00,45.7,41.1,29.63,NW,313,17.2,19.6,84,0.00,OVC,,0.03,WeatherDisplay:10.37,2013-03-24 08:25:00,
2013-03-24 03:30:00,45.1,40.3,29.63,NW,313,16.9,23.0,83,0.00,OVC,,0.03,WeatherDisplay:10.37,2013-03-24 08:30:00,
2013-03-24 03:35:00,45.0,40.4,29.63,West,268,15.8,22.0,84,0.00,OVC,,0.03,WeatherDisplay:10.37,2013-03-24 08:35:00,
2013-03-24 03:40:00,45.0,39.8,29.63,West,268,16.9,25.3,82,0.00,OVC,,0.03,WeatherDisplay:10.37,2013-03-24 08:40:00,
2013-03-24 03:45:00,44.6,39.1,29.64,WNW,291,16.8,23.0,81,0.00,OVC,,0.03,WeatherDisplay:10.37,2013-03-24 08:45:00,
2013-03-24 03:50:00,44.4,38.6,29.64,West,268,18.6,24.2,80,0.00,OVC,,0.03,WeatherDisplay:10.37,2013-03-24 08:50:00,
2013-03-24 03:55:00,44.2,38.5,29.65,NNW,335,15.5,25.6,80,0.00,OVC,,0.03,WeatherDisplay:10.37,2013-03-24 08:55:00,
2013-03-24 04:00:00,43.9,37.8,29.65,West,268,13.4,18.4,79,0.00,OVC,,0.03,WeatherDisplay:10.37,2013-03-24 09:00:00,
2013-03-24 04:05:00,43.9,38.1,29.65,West,268,15.4,20.7,80,0.00,OVC,,0.03,WeatherDisplay:10.37,2013-03-24 09:05:00,
2013-03-24 04:10:00,43.7,37.9,29.66,West,268,16.2,24.2,80,0.00,OVC,,0.03,WeatherDisplay:10.37,2013-03-24 09:10:00,
2013-03-24 04:15:00,43.5,37.4,29.66,WNW,291,18.6,25.3,79,0.00,OVC,,0.03,WeatherDisplay:10.37,2013-03-24 09:15:00,
2013-03-24 04:20:00,43.5,37.1,29.65,WNW,291,13.8,20.7,78,0.00,OVC,,0.03,WeatherDisplay:10.37,2013-03-24 09:20:00,
2013-03-24 04:25:00,43.3,37.3,29.65,NW,313,16.8,23.0,79,0.00,OVC,,0.03,WeatherDisplay:10.37,2013-03-24 09:25:00,
2013-03-24 04:30:00,43.2,37.1,29.66,NNW,335,15.4,20.7,79,0.00,OVC,,0.03,WeatherDisplay:10.37,2013-03-24 09:30:00,
2013-03-24 04:35:00,43.2,36.8,29.66,West,268,14.0,17.3,78,0.00,OVC,,0.03,WeatherDisplay:10.37,2013-03-24 09:35:00,
2013-03-24 04:40:00,43.0,36.3,29.66,NNW,335,17.7,27.6,77,0.00,OVC,,0.03,WeatherDisplay:10.37,2013-03-24 09:40:00,
2013-03-24 04:45:00,42.8,36.1,29.67,NNW,335,11.9,17.3,77,0.00,OVC,,0.03,WeatherDisplay:10.37,2013-03-24 09:45:00,
2013-03-24 04:50:00,42.6,35.9,29.67,NW,313,17.5,19.6,77,0.00,OVC,,0.03,WeatherDisplay:10.37,2013-03-24 09:50:00,
2013-03-24 04:55:00,42.4,35.7,29.67,NNW,335,18.1,25.3,77,0.00,OVC,,0.03,WeatherDisplay:10.37,2013-03-24 09:55:00,
2013-03-24 05:00:00,42.3,35.2,29.67,WNW,291,19.1,25.3,76,0.00,OVC,,0.03,WeatherDisplay:10.37,2013-03-24 10:00:00,
2013-03-24 05:05:00,42.1,34.7,29.67,NW,313,23.9,31.1,75,0.00,OVC,,0.03,WeatherDisplay:10.37,2013-03-24 10:05:00,
2013-03-24 05:10:00,42.1,34.7,29.67,NW,313,19.3,26.5,75,0.00,OVC,,0.03,WeatherDisplay:10.37,2013-03-24 10:10:00,
2013-03-24 05:15:00,41.9,34.9,29.67,NW,313,17.4,23.0,76,0.00,OVC,,0.03,WeatherDisplay:10.37,2013-03-24 10:15:00,
2013-03-24 05:20:00,41.9,35.2,29.67,NW,313,14.4,21.9,77,0.00,OVC,,0.03,WeatherDisplay:10.37,2013-03-24 10:20:00,
2013-03-24 05:25:00,41.9,34.9,29.68,North,358,18.8,29.9,76,0.00,OVC,,0.03,WeatherDisplay:10.37,2013-03-24 10:25:00,
2013-03-24 05:30:00,41.9,34.2,29.68,WNW,291,21.3,29.9,74,0.00,OVC,,0.03,WeatherDisplay:10.37,2013-03-24 10:30:00,
2013-03-24 05:35:00,41.7,34.0,29.69,WNW,291,20.4,32.2,74,0.00,OVC,,0.03,WeatherDisplay:10.37,2013-03-24 10:35:00,
2013-03-24 05:40:00,41.7,34.0,29.69,NW,313,19.5,25.3,74,0.00,OVC,,0.03,WeatherDisplay:10.37,2013-03-24 10:40:00,
2013-03-24 05:45:00,41.4,33.0,29.69,West,268,22.3,25.3,72,0.00,OVC,,0.03,WeatherDisplay:10.37,2013-03-24 10:45:00,
2013-03-24 05:51:00,41.2,32.5,29.69,West,268,18.4,27.6,71,0.00,OVC,,0.03,WeatherDisplay:10.37,2013-03-24 10:51:00,
2013-03-24 05:56:00,41.0,32.3,29.69,NW,313,18.5,24.2,71,0.00,OVC,,0.03,WeatherDisplay:10.37,2013-03-24 10:56:00,
2013-03-24 06:01:00,40.8,32.1,29.70,NW,313,17.1,23.0,71,0.00,OVC,,0.03,WeatherDisplay:10.37,2013-03-24 11:01:00,
2013-03-24 06:06:00,40.6,32.0,29.70,WNW,291,18.5,27.6,71,0.00,OVC,,0.03,WeatherDisplay:10.37,2013-03-24 11:06:00,
2013-03-24 06:11:00,40.6,32.0,29.71,NNW,335,14.2,19.6,71,0.00,OVC,,0.03,WeatherDisplay:10.37,2013-03-24 11:11:00,
2013-03-24 06:16:00,40.6,31.6,29.71,NW,313,15.9,20.7,70,0.00,OVC,,0.03,WeatherDisplay:10.37,2013-03-24 11:16:00,
2013-03-24 06:21:00,40.6,32.0,29.71,West,268,16.7,24.2,71,0.00,OVC,,0.03,WeatherDisplay:10.37,2013-03-24 11:21:00,
2013-03-24 06:26:00,40.5,31.8,29.72,NW,313,12.9,19.9,71,0.00,OVC,,0.03,WeatherDisplay:10.37,2013-03-24 11:26:00,
2013-03-24 06:31:00,40.3,31.6,29.71,NW,313,10.3,18.4,71,0.00,OVC,,0.03,WeatherDisplay:10.37,2013-03-24 11:31:00,
2013-03-24 06:36:00,40.3,31.6,29.71,NNW,335,17.4,28.8,71,0.00,OVC,,0.03,WeatherDisplay:10.37,2013-03-24 11:36:00,
2013-03-24 06:41:00,40.3,31.6,29.71,West,268,16.5,19.6,71,0.00,OVC,,0.03,WeatherDisplay:10.37,2013-03-24 11:41:00,
2013-03-24 06:46:00,40.6,32.0,29.72,West,268,7.8,11.5,71,0.00,OVC,,0.03,WeatherDisplay:10.37,2013-03-24 11:46:00,
2013-03-24 06:51:00,40.6,32.3,29.72,NW,313,11.0,13.8,72,0.00,OVC,,0.03,WeatherDisplay:10.37,2013-03-24 11:51:00,
2013-03-24 06:56:00,40.6,32.0,29.72,West,268,15.2,20.7,71,0.00,OVC,,0.03,WeatherDisplay:10.37,2013-03-24 11:56:00,
2013-03-24 07:01:00,40.6,32.0,29.73,NNW,335,12.3,18.4,71,0.00,BKN,,0.03,WeatherDisplay:10.37,2013-03-24 12:01:00,
2013-03-24 07:06:00,40.6,32.0,29.73,West,268,15.4,24.6,71,0.00,BKN,,0.03,WeatherDisplay:10.37,2013-03-24 12:06:00,
2013-03-24 07:11:00,40.5,31.8,29.74,West,268,15.0,20.7,71,0.00,BKN,,0.03,WeatherDisplay:10.37,2013-03-24 12:11:00,
2013-03-24 07:17:00,40.5,31.8,29.74,West,268,17.7,24.2,71,0.00,BKN,,0.03,WeatherDisplay:10.37,2013-03-24 12:17:00,
2013-03-24 07:22:00,40.3,31.6,29.73,WNW,291,17.3,20.7,71,0.00,BKN,,0.03,WeatherDisplay:10.37,2013-03-24 12:22:00,
2013-03-24 07:27:00,40.3,31.6,29.74,NW,313,17.1,23.0,71,0.00,BKN,,0.03,WeatherDisplay:10.37,2013-03-24 12:27:00,
2013-03-24 07:32:00,40.3,31.6,29.75,West,268,15.7,15.9,71,0.00,BKN,,0.03,WeatherDisplay:10.37,2013-03-24 12:32:00,
2013-03-24 07:37:00,40.3,31.6,29.75,WNW,291,15.9,20.7,71,0.00,BKN,,0.03,WeatherDisplay:10.37,2013-03-24 12:37:00,
2013-03-24 07:42:00,40.3,30.9,29.75,West,268,13.1,18.4,69,0.00,BKN,,0.03,WeatherDisplay:10.37,2013-03-24 12:42:00,
2013-03-24 07:47:00,40.3,30.9,29.76,WNW,291,13.6,18.4,69,0.00,BKN,,0.03,WeatherDisplay:10.37,2013-03-24 12:47:00,
2013-03-24 07:52:00,40.3,30.9,29.76,WNW,291,15.5,25.3,69,0.00,BKN,,0.03,WeatherDisplay:10.37,2013-03-24 12:52:00,
2013-03-24 07:57:00,40.3,30.2,29.77,NW,313,17.3,23.0,67,0.00,BKN,,0.03,WeatherDisplay:10.37,2013-03-24 12:57:00,
2013-03-24 08:02:00,40.3,30.2,29.77,NNW,335,17.0,20.7,67,0.00,OVC,,0.03,WeatherDisplay:10.37,2013-03-24 13:02:00,
2013-03-24 08:08:00,40.3,30.2,29.77,WNW,291,14.5,18.4,67,0.00,OVC,,0.03,WeatherDisplay:10.37,2013-03-24 13:08:00,
2013-03-24 08:13:00,40.3,30.2,29.77,NW,313,14.6,18.4,67,0.00,OVC,,0.03,WeatherDisplay:10.37,2013-03-24 13:13:00,
2013-03-24 08:18:00,40.3,30.2,29.78,West,268,11.2,15.0,67,0.00,OVC,,0.03,WeatherDisplay:10.37,2013-03-24 13:18:00,
2013-03-24 08:23:00,40.3,30.2,29.78,West,268,13.3,17.3,67,0.00,OVC,,0.03,WeatherDisplay:10.37,2013-03-24 13:23:00,
2013-03-24 08:28:00,40.3,30.2,29.77,NNW,335,14.7,20.7,67,0.00,OVC,,0.03,WeatherDisplay:10.37,2013-03-24 13:28:00,
2013-03-24 08:33:00,40.5,30.4,29.77,North,358,15.1,20.7,67,0.00,OVC,,0.03,WeatherDisplay:10.37,2013-03-24 13:33:00,
2013-03-24 08:38:00,40.6,30.5,29.78,WNW,291,16.4,21.0,67,0.00,OVC,,0.03,WeatherDisplay:10.37,2013-03-24 13:38:00,
2013-03-24 08:43:00,40.6,30.2,29.78,NNW,335,17.4,25.3,66,0.00,OVC,,0.03,WeatherDisplay:10.37,2013-03-24 13:43:00,
2013-03-24 08:48:00,40.6,30.5,29.78,NW,313,13.7,19.6,67,0.00,OVC,,0.03,WeatherDisplay:10.37,2013-03-24 13:48:00,
2013-03-24 08:53:00,40.6,30.5,29.78,WNW,291,13.5,17.3,67,0.00,OVC,,0.03,WeatherDisplay:10.37,2013-03-24 13:53:00,
2013-03-24 08:58:00,40.5,31.1,29.79,NW,313,15.7,20.7,69,0.00,OVC,,0.03,WeatherDisplay:10.37,2013-03-24 13:58:00,
2013-03-24 09:03:00,40.5,31.1,29.79,West,268,17.2,25.3,69,0.00,OVC,,0.03,WeatherDisplay:10.37,2013-03-24 14:03:00,
2013-03-24 09:08:00,40.5,31.1,29.79,NNW,335,11.9,16.1,69,0.00,OVC,,0.03,WeatherDisplay:10.37,2013-03-24 14:08:00,
2013-03-24 09:13:00,40.3,30.9,29.79,West,268,15.0,19.6,69,0.00,OVC,,0.03,WeatherDisplay:10.37,2013-03-24 14:13:00,
2013-03-24 09:18:00,40.5,31.4,29.80,NNW,335,12.9,18.4,70,0.00,OVC,,0.03,WeatherDisplay:10.37,2013-03-24 14:18:00,
2013-03-24 09:23:00,40.5,31.4,29.80,NW,313,14.4,20.7,70,0.00,OVC,,0.03,WeatherDisplay:10.37,2013-03-24 14:23:00,
2013-03-24 09:28:00,40.5,31.8,29.81,West,268,12.5,17.5,71,0.00,OVC,,0.03,WeatherDisplay:10.37,2013-03-24 14:28:00,
2013-03-24 09:33:00,40.5,30.7,29.81,North,358,12.9,16.6,68,0.00,OVC,,0.03,WeatherDisplay:10.37,2013-03-24 14:33:00,
2013-03-24 09:38:00,40.3,30.2,29.82,NNW,335,14.0,21.9,67,0.00,OVC,,0.03,WeatherDisplay:10.37,2013-03-24 14:38:00,
2013-03-24 09:44:00,40.3,30.2,29.82,North,358,13.5,17.3,67,0.00,OVC,,0.03,WeatherDisplay:10.37,2013-03-24 14:44:00,
2013-03-24 09:49:00,40.3,30.2,29.82,North,358,19.1,24.2,67,0.00,OVC,,0.03,WeatherDisplay:10.37,2013-03-24 14:49:00,
2013-03-24 09:54:00,40.3,29.8,29.82,NW,313,21.6,27.6,66,0.00,OVC,,0.03,WeatherDisplay:10.37,2013-03-24 14:54:00,
2013-03-24 09:59:00,40.3,30.2,29.82,West,268,13.8,23.1,67,0.00,OVC,,0.03,WeatherDisplay:10.37,2013-03-24 14:59:00,
2013-03-24 10:04:00,40.3,30.2,29.83,NNW,335,15.0,18.4,67,0.00,OVC,,0.03,WeatherDisplay:10.37,2013-03-24 15:04:00,
2013-03-24 10:09:00,40.3,30.2,29.82,NNW,335,14.7,18.4,67,0.00,OVC,,0.03,WeatherDisplay:10.37,2013-03-24 15:09:00,
2013-03-24 10:14:00,40.6,30.5,29.83,NW,313,11.0,18.4,67,0.00,OVC,,0.03,WeatherDisplay:10.37,2013-03-24 15:14:00,
2013-03-24 10:19:00,40.5,29.6,29.83,NW,313,17.8,27.6,65,0.00,OVC,,0.03,WeatherDisplay:10.37,2013-03-24 15:19:00,
2013-03-24 10:24:00,40.5,30.0,29.83,NNW,335,14.3,23.0,66,0.00,OVC,,0.03,WeatherDisplay:10.37,2013-03-24 15:24:00,
2013-03-24 10:29:00,40.6,30.2,29.83,NW,313,14.7,21.9,66,0.00,OVC,,0.03,WeatherDisplay:10.37,2013-03-24 15:29:00,
2013-03-24 10:34:00,40.8,30.0,29.84,NW,313,16.7,20.7,65,0.00,OVC,,0.03,WeatherDisplay:10.37,2013-03-24 15:34:00,
2013-03-24 10:39:00,41.0,30.1,29.84,NW,313,16.8,20.7,65,0.00,OVC,,0.03,WeatherDisplay:10.37,2013-03-24 15:39:00,
2013-03-24 10:44:00,41.0,29.7,29.84,NW,313,14.6,21.9,64,0.00,OVC,,0.03,WeatherDisplay:10.37,2013-03-24 15:44:00,
2013-03-24 10:49:00,41.0,29.4,29.84,NW,313,19.1,28.8,63,0.00,OVC,,0.03,WeatherDisplay:10.37,2013-03-24 15:49:00,
2013-03-24 10:54:00,41.2,30.3,29.84,NW,313,12.4,18.4,65,0.00,OVC,,0.03,WeatherDisplay:10.37,2013-03-24 15:54:00,
2013-03-24 10:59:00,41.5,29.9,29.84,NW,313,18.5,20.5,63,0.00,OVC,,0.03,WeatherDisplay:10.37,2013-03-24 15:59:00,
2013-03-24 11:04:00,41.5,31.0,29.84,NNW,335,15.6,17.3,66,0.00,OVC,,0.03,WeatherDisplay:10.37,2013-03-24 16:04:00,
2013-03-24 11:09:00,42.3,30.6,29.84,NW,313,15.5,21.9,63,0.00,OVC,,0.03,WeatherDisplay:10.37,2013-03-24 16:09:00,
2013-03-24 11:14:00,43.2,31.0,29.84,NW,313,19.4,25.3,62,0.00,OVC,,0.03,WeatherDisplay:10.37,2013-03-24 16:14:00,
2013-03-24 11:19:00,43.5,31.8,29.84,NNW,335,15.2,23.0,63,0.00,OVC,,0.03,WeatherDisplay:10.37,2013-03-24 16:19:00,
2013-03-24 11:24:00,43.9,31.3,29.84,West,268,18.8,21.2,61,0.00,OVC,,0.03,WeatherDisplay:10.37,2013-03-24 16:24:00,
2013-03-24 11:29:00,43.3,30.4,29.84,West,268,19.1,26.5,60,0.00,OVC,,0.03,WeatherDisplay:10.37,2013-03-24 16:29:00,
2013-03-24 11:35:00,43.5,31.4,29.84,North,358,12.7,24.2,62,0.00,OVC,,0.03,WeatherDisplay:10.37,2013-03-24 16:35:00,
2013-03-24 11:40:00,43.9,30.5,29.85,West,268,17.3,24.2,59,0.00,OVC,,0.03,WeatherDisplay:10.37,2013-03-24 16:40:00,
2013-03-24 11:45:00,44.2,30.8,29.85,NNW,335,17.8,17.8,59,0.00,OVC,,0.03,WeatherDisplay:10.37,2013-03-24 16:45:00,
2013-03-24 11:50:00,44.2,30.0,29.85,NW,313,17.4,25.3,57,0.00,OVC,,0.03,WeatherDisplay:10.37,2013-03-24 16:50:00,
2013-03-24 11:55:00,44.4,31.0,29.85,West,268,15.4,20.7,59,0.00,OVC,,0.03,WeatherDisplay:10.37,2013-03-24 16:55:00,
2013-03-24 12:00:00,44.2,30.0,29.86,NNW,335,15.5,20.7,57,0.00,OVC,,0.03,WeatherDisplay:10.37,2013-03-24 17:00:00,
2013-03-24 12:05:00,44.4,31.0,29.85,NW,313,15.7,17.3,59,0.00,BKN,,0.03,WeatherDisplay:10.37,2013-03-24 17:05:00,
2013-03-24 12:10:00,44.4,29.7,29.85,NW,313,18.3,28.8,56,0.00,BKN,,0.03,WeatherDisplay:10.37,2013-03-24 17:10:00,
2013-03-24 12:15:00,44.6,29.9,29.85,NNW,335,19.8,29.9,56,0.00,BKN,,0.03,WeatherDisplay:10.37,2013-03-24 17:15:00,
2013-03-24 12:20:00,45.0,30.6,29.85,NNW,335,16.4,23.0,57,0.00,BKN,,0.03,WeatherDisplay:10.37,2013-03-24 17:20:00,
2013-03-24 12:25:00,45.3,31.4,29.85,WNW,291,12.5,16.1,58,0.00,BKN,,0.03,WeatherDisplay:10.37,2013-03-24 17:25:00,
2013-03-24 12:30:00,45.7,30.4,29.85,NW,313,18.7,24.2,55,0.00,BKN,,0.03,WeatherDisplay:10.37,2013-03-24 17:30:00,
2013-03-24 12:35:00,46.0,31.2,29.85,NE,43,15.9,21.9,56,0.00,BKN,,0.03,WeatherDisplay:10.37,2013-03-24 17:35:00,
2013-03-24 12:40:00,46.2,30.5,29.85,West,268,17.7,26.2,54,0.00,BKN,,0.03,WeatherDisplay:10.37,2013-03-24 17:40:00,
2013-03-24 12:45:00,46.0,29.4,29.84,West,268,20.7,26.5,52,0.00,BKN,,0.03,WeatherDisplay:10.37,2013-03-24 17:45:00,
2013-03-24 12:50:00,46.4,30.2,29.84,North,358,18.3,23.0,53,0.00,BKN,,0.03,WeatherDisplay:10.37,2013-03-24 17:50:00,
2013-03-24 12:55:00,46.8,30.5,29.84,NNW,335,17.2,23.0,53,0.00,BKN,,0.03,WeatherDisplay:10.37,2013-03-24 17:55:00,
2013-03-24 13:00:00,46.9,30.7,29.84,NW,313,18.4,24.2,53,0.00,BKN,,0.03,WeatherDisplay:10.37,2013-03-24 18:00:00,
2013-03-24 13:05:00,46.8,30.0,29.84,NNW,335,19.1,25.3,52,0.00,BKN,,0.03,WeatherDisplay:10.37,2013-03-24 18:05:00,
2013-03-24 13:10:00,47.1,30.4,29.84,NW,313,16.8,24.2,52,0.00,BKN,,0.03,WeatherDisplay:10.37,2013-03-24 18:10:00,
2013-03-24 13:15:00,47.5,30.2,29.84,North,358,16.4,23.0,51,0.00,BKN,,0.03,WeatherDisplay:10.37,2013-03-24 18:15:00,
2013-03-24 13:20:00,47.8,30.6,29.84,WNW,291,15.3,20.7,51,0.00,BKN,,0.03,WeatherDisplay:10.37,2013-03-24 18:20:00,
2013-03-24 13:25:00,47.7,30.4,29.83,West,268,13.3,17.3,51,0.00,BKN,,0.03,WeatherDisplay:10.37,2013-03-24 18:25:00,
2013-03-24 13:30:00,47.7,30.4,29.83,NNW,335,15.4,28.5,51,0.00,BKN,,0.03,WeatherDisplay:10.37,2013-03-24 18:30:00,
2013-03-24 13:35:00,47.7,30.9,29.84,North,358,15.2,20.7,52,0.00,BKN,,0.03,WeatherDisplay:10.37,2013-03-24 18:35:00,
2013-03-24 13:40:00,47.8,29.6,29.84,NNW,335,12.8,19.6,49,0.00,BKN,,0.03,WeatherDisplay:10.37,2013-03-24 18:40:00,
2013-03-24 13:45:00,48.0,30.2,29.84,NNW,335,11.1,16.1,50,0.00,BKN,,0.03,WeatherDisplay:10.37,2013-03-24 18:45:00,
2013-03-24 13:50:00,48.0,30.2,29.83,NNW,335,14.2,20.7,50,0.00,BKN,,0.03,WeatherDisplay:10.37,2013-03-24 18:50:00,
2013-03-24 13:55:00,48.7,31.9,29.83,NW,313,12.7,17.9,52,0.00,BKN,,0.03,WeatherDisplay:10.37,2013-03-24 18:55:00,
2013-03-24 14:00:00,48.7,29.9,29.84,North,358,17.5,20.7,48,0.00,BKN,,0.03,WeatherDisplay:10.37,2013-03-24 19:00:00,
2013-03-24 14:05:00,48.4,30.6,29.84,NNW,335,15.3,21.9,50,0.00,SCT,,0.03,WeatherDisplay:10.37,2013-03-24 19:05:00,
2013-03-24 14:11:00,48.9,31.1,29.84,North,358,15.7,24.2,50,0.00,SCT,,0.03,WeatherDisplay:10.37,2013-03-24 19:11:00,
2013-03-24 14:16:00,49.3,29.9,29.83,North,358,18.3,26.5,47,0.00,SCT,,0.03,WeatherDisplay:10.37,2013-03-24 19:16:00,
2013-03-24 14:21:00,49.3,29.9,29.83,NW,313,21.1,27.6,47,0.00,SCT,,0.03,WeatherDisplay:10.37,2013-03-24 19:21:00,
2013-03-24 14:27:00,49.5,29.5,29.83,NW,313,14.2,20.7,46,0.00,SCT,,0.03,WeatherDisplay:10.37,2013-03-24 19:27:00,
2013-03-24 14:32:00,49.5,29.5,29.83,North,358,15.1,20.1,46,0.00,SCT,,0.03,WeatherDisplay:10.37,2013-03-24 19:32:00,
2013-03-24 14:37:00,49.6,29.7,29.84,NW,313,14.8,20.7,46,0.00,SCT,,0.03,WeatherDisplay:10.37,2013-03-24 19:37:00,
2013-03-24 14:42:00,49.5,30.6,29.84,NW,313,16.6,20.7,48,0.00,SCT,,0.03,WeatherDisplay:10.37,2013-03-24 19:42:00,
2013-03-24 14:47:00,49.3,29.9,29.84,NNW,335,13.6,19.6,47,0.00,SCT,,0.03,WeatherDisplay:10.37,2013-03-24 19:47:00,
2013-03-24 14:52:00,49.5,30.0,29.83,WNW,291,18.2,23.0,47,0.00,SCT,,0.03,WeatherDisplay:10.37,2013-03-24 19:52:00,
2013-03-24 14:57:00,49.8,30.9,29.83,NNW,335,12.7,15.0,48,0.00,SCT,,0.03,WeatherDisplay:10.37,2013-03-24 19:57:00,
2013-03-24 15:02:00,50.0,29.5,29.83,North,358,15.9,23.0,45,0.00,SCT,,0.03,WeatherDisplay:10.37,2013-03-24 20:02:00,
2013-03-24 15:07:00,50.2,30.7,29.83,NNW,335,14.6,26.5,47,0.00,SCT,,0.03,WeatherDisplay:10.37,2013-03-24 20:07:00,
2013-03-24 15:12:00,50.2,30.7,29.83,NW,313,13.4,16.1,47,0.00,SCT,,0.03,WeatherDisplay:10.37,2013-03-24 20:12:00,
2013-03-24 15:17:00,50.0,28.9,29.82,West,268,20.8,25.3,44,0.00,SCT,,0.03,WeatherDisplay:10.37,2013-03-24 20:17:00,
2013-03-24 15:22:00,50.0,30.5,29.82,West,268,16.4,20.6,47,0.00,SCT,,0.03,WeatherDisplay:10.37,2013-03-24 20:22:00,
2013-03-24 15:28:00,50.4,29.8,29.82,NW,313,15.5,20.7,45,0.00,SCT,,0.03,WeatherDisplay:10.37,2013-03-24 20:28:00,
2013-03-24 15:33:00,50.7,29.6,29.81,NW,313,19.8,24.2,44,0.00,SCT,,0.03,WeatherDisplay:10.37,2013-03-24 20:33:00,
2013-03-24 15:38:00,50.7,30.1,29.81,West,268,17.1,25.3,45,0.00,SCT,,0.03,WeatherDisplay:10.37,2013-03-24 20:38:00,
2013-03-24 15:43:00,50.9,29.7,29.82,WNW,291,19.9,25.3,44,0.00,SCT,,0.03,WeatherDisplay:10.37,2013-03-24 20:43:00,
2013-03-24 15:48:00,50.7,29.6,29.82,West,268,17.9,26.5,44,0.00,SCT,,0.03,WeatherDisplay:10.37,2013-03-24 20:48:00,
2013-03-24 15:53:00,51.1,29.3,29.82,NNW,335,16.1,23.0,43,0.00,SCT,,0.03,WeatherDisplay:10.37,2013-03-24 20:53:00,
2013-03-24 15:58:00,51.1,29.3,29.82,West,268,15.3,23.0,43,0.00,SCT,,0.03,WeatherDisplay:10.37,2013-03-24 20:58:00,
2013-03-24 16:03:00,51.3,29.5,29.82,NW,313,16.5,25.3,43,0.00,SCT,,0.03,WeatherDisplay:10.37,2013-03-24 21:03:00,
2013-03-24 16:08:00,51.1,29.3,29.82,NW,313,12.2,20.7,43,0.00,SCT,,0.03,WeatherDisplay:10.37,2013-03-24 21:08:00,
2013-03-24 16:13:00,51.4,30.8,29.82,NW,313,13.0,17.3,45,0.00,SCT,,0.03,WeatherDisplay:10.37,2013-03-24 21:13:00,
2013-03-24 16:18:00,51.8,30.6,29.82,NNW,335,8.7,11.5,44,0.00,SCT,,0.03,WeatherDisplay:10.37,2013-03-24 21:18:00,
2013-03-24 16:23:00,52.2,30.9,29.82,NNW,335,11.7,20.1,44,0.00,SCT,,0.03,WeatherDisplay:10.37,2013-03-24 21:23:00,
2013-03-24 16:28:00,51.6,29.3,29.82,West,268,13.8,19.6,42,0.00,SCT,,0.03,WeatherDisplay:10.37,2013-03-24 21:28:00,
2013-03-24 16:33:00,51.4,29.7,29.81,NNW,335,13.9,18.5,43,0.00,SCT,,0.03,WeatherDisplay:10.37,2013-03-24 21:33:00,
2013-03-24 16:38:00,51.3,29.5,29.81,NNW,335,16.6,21.9,43,0.00,SCT,,0.03,WeatherDisplay:10.37,2013-03-24 21:38:00,
2013-03-24 16:43:00,51.4,29.7,29.81,NW,313,16.4,21.9,43,0.00,SCT,,0.03,WeatherDisplay:10.37,2013-03-24 21:43:00,
2013-03-24 16:48:00,51.4,29.1,29.82,WNW,291,15.3,15.3,42,0.00,SCT,,0.03,WeatherDisplay:10.37,2013-03-24 21:48:00,
2013-03-24 16:54:00,51.6,29.8,29.81,NW,313,12.5,15.0,43,0.00,SCT,,0.03,WeatherDisplay:10.37,2013-03-24 21:54:00,
2013-03-24 16:59:00,52.0,29.6,29.81,NW,313,13.0,17.3,42,0.00,SCT,,0.03,WeatherDisplay:10.37,2013-03-24 21:59:00,
2013-03-24 17:04:00,52.2,29.7,29.81,NW,313,15.5,19.6,42,0.00,SCT,,0.03,WeatherDisplay:10.37,2013-03-24 22:04:00,
2013-03-24 17:09:00,51.8,28.8,29.81,NNW,335,15.6,21.9,41,0.00,SCT,,0.03,WeatherDisplay:10.37,2013-03-24 22:09:00,
2013-03-24 17:14:00,51.8,30.0,29.81,West,268,14.8,19.9,43,0.00,SCT,,0.03,WeatherDisplay:10.37,2013-03-24 22:14:00,
2013-03-24 17:19:00,52.0,30.2,29.81,North,358,9.3,12.7,43,0.00,SCT,,0.03,WeatherDisplay:10.37,2013-03-24 22:19:00,
2013-03-24 17:24:00,52.3,29.3,29.80,NW,313,17.7,25.3,41,0.00,SCT,,0.03,WeatherDisplay:10.37,2013-03-24 22:24:00,
2013-03-24 17:29:00,52.3,29.9,29.81,North,358,11.7,18.4,42,0.00,SCT,,0.03,WeatherDisplay:10.37,2013-03-24 22:29:00,
2013-03-24 17:34:00,52.2,29.1,29.81,North,358,13.4,19.6,41,0.00,SCT,,0.03,WeatherDisplay:10.37,2013-03-24 22:34:00,
2013-03-24 17:39:00,51.8,29.4,29.81,NNW,335,10.0,19.7,42,0.00,SCT,,0.03,WeatherDisplay:10.37,2013-03-24 22:39:00,
2013-03-24 17:44:00,52.2,28.5,29.80,NW,313,14.0,17.3,40,0.00,SCT,,0.03,WeatherDisplay:10.37,2013-03-24 22:44:00,
2013-03-24 17:49:00,52.0,29.0,29.80,NNW,335,13.2,16.1,41,0.00,SCT,,0.03,WeatherDisplay:10.37,2013-03-24 22:49:00,
2013-03-24 17:54:00,52.2,28.5,29.80,NNW,335,14.5,19.6,40,0.00,SCT,,0.03,WeatherDisplay:10.37,2013-03-24 22:54:00,
2013-03-24 17:59:00,52.2,29.1,29.80,North,358,13.8,17.1,41,0.00,SCT,,0.03,WeatherDisplay:10.37,2013-03-24 22:59:00,
2013-03-24 18:04:00,52.2,28.5,29.81,North,358,12.9,20.7,40,0.00,CLR,,0.03,WeatherDisplay:10.37,2013-03-24 23:04:00,
2013-03-24 18:09:00,52.0,29.0,29.81,NNW,335,11.9,15.5,41,0.00,CLR,,0.03,WeatherDisplay:10.37,2013-03-24 23:09:00,
2013-03-24 18:14:00,51.8,28.8,29.80,NNW,335,11.2,13.8,41,0.00,CLR,,0.03,WeatherDisplay:10.37,2013-03-24 23:14:00,
2013-03-24 18:19:00,52.0,29.0,29.80,NNW,335,12.2,20.7,41,0.00,CLR,,0.03,WeatherDisplay:10.37,2013-03-24 23:19:00,
2013-03-24 18:24:00,52.0,28.4,29.80,North,358,10.5,15.0,40,0.00,CLR,,0.03,WeatherDisplay:10.37,2013-03-24 23:24:00,
2013-03-24 18:29:00,52.0,29.0,29.80,North,358,9.4,14.1,41,0.00,CLR,,0.03,WeatherDisplay:10.37,2013-03-24 23:29:00,
2013-03-24 18:34:00,52.2,29.1,29.81,NNW,335,11.1,13.8,41,0.00,CLR,,0.03,WeatherDisplay:10.37,2013-03-24 23:34:00,
2013-03-24 18:39:00,51.8,28.2,29.81,NNW,335,11.2,16.1,40,0.00,CLR,,0.03,WeatherDisplay:10.37,2013-03-24 23:39:00,
2013-03-24 18:44:00,51.6,28.1,29.81,North,358,12.7,13.8,40,0.00,CLR,,0.03,WeatherDisplay:10.37,2013-03-24 23:44:00,
2013-03-24 18:50:00,51.4,28.5,29.81,North,358,9.4,12.7,41,0.00,CLR,,0.03,WeatherDisplay:10.37,2013-03-24 23:50:00,
2013-03-24 18:55:00,51.4,27.3,29.81,NNW,335,12.0,16.1,39,0.00,CLR,,0.03,WeatherDisplay:10.37,2013-03-24 23:55:00,
2013-03-24 19:00:00,51.4,27.9,29.82,North,358,9.5,12.7,40,0.00,CLR,,0.03,WeatherDisplay:10.37,2013-03-25 00:00:00,
2013-03-24 19:05:00,51.4,28.5,29.82,NNW,335,9.0,15.0,41,0.00,CLR,,0.03,WeatherDisplay:10.37,2013-03-25 00:05:00,
2013-03-24 19:10:00,50.9,28.0,29.82,North,358,9.4,12.9,41,0.00,CLR,,0.03,WeatherDisplay:10.37,2013-03-25 00:10:00,
2013-03-24 19:15:00,50.7,28.4,29.82,North,358,8.1,10.4,42,0.00,CLR,,0.03,WeatherDisplay:10.37,2013-03-25 00:15:00,
2013-03-24 19:20:00,50.4,28.1,29.82,North,358,10.7,12.7,42,0.00,CLR,,0.03,WeatherDisplay:10.37,2013-03-25 00:20:00,
2013-03-24 19:25:00,50.0,27.8,29.82,NW,313,10.5,16.1,42,0.00,CLR,,0.03,WeatherDisplay:10.37,2013-03-25 00:25:00,
2013-03-24 19:30:00,49.6,26.9,29.83,NW,313,10.1,12.7,41,0.00,CLR,,0.03,WeatherDisplay:10.37,2013-03-25 00:30:00,
2013-03-24 19:35:00,49.3,26.0,29.83,NW,313,12.1,15.0,40,0.00,CLR,,0.03,WeatherDisplay:10.37,2013-03-25 00:35:00,
2013-03-24 19:40:00,48.9,25.6,29.83,North,358,11.4,15.0,40,0.00,CLR,,0.03,WeatherDisplay:10.37,2013-03-25 00:40:00,
2013-03-24 19:45:00,48.7,25.5,29.84,NNW,335,8.0,11.5,40,0.00,CLR,,0.03,WeatherDisplay:10.37,2013-03-25 00:45:00,
2013-03-24 19:50:00,48.4,25.7,29.84,NNW,335,7.4,10.4,41,0.00,CLR,,0.03,WeatherDisplay:10.37,2013-03-25 00:50:00,
2013-03-24 19:55:00,48.2,26.2,29.84,North,358,6.9,8.5,42,0.00,CLR,,0.03,WeatherDisplay:10.37,2013-03-25 00:55:00,
2013-03-24 20:00:00,47.8,25.8,29.84,NNW,335,7.8,10.4,42,0.00,CLR,,0.03,WeatherDisplay:10.37,2013-03-25 01:00:00,
2013-03-24 20:05:00,47.5,26.1,29.84,North,358,6.3,9.2,43,0.00,CLR,,0.03,WeatherDisplay:10.37,2013-03-25 01:05:00,
2013-03-24 20:10:00,47.1,25.7,29.85,North,358,6.7,9.2,43,0.00,CLR,,0.03,WeatherDisplay:10.37,2013-03-25 01:10:00,
2013-03-24 20:15:00,47.1,25.7,29.85,North,358,7.0,9.2,43,0.00,CLR,,0.03,WeatherDisplay:10.37,2013-03-25 01:15:00,
2013-03-24 20:20:00,46.8,26.0,29.85,North,358,6.7,9.2,44,0.00,CLR,,0.03,WeatherDisplay:10.37,2013-03-25 01:20:00,
2013-03-24 20:25:00,46.4,26.2,29.85,NW,313,6.5,7.6,45,0.00,CLR,,0.03,WeatherDisplay:10.37,2013-03-25 01:25:00,
2013-03-24 20:30:00,46.0,25.9,29.85,NW,313,7.4,9.2,45,0.00,CLR,,0.03,WeatherDisplay:10.37,2013-03-25 01:30:00,
2013-03-24 20:35:00,45.9,25.7,29.85,NW,313,6.7,9.2,45,0.00,CLR,,0.03,WeatherDisplay:10.37,2013-03-25 01:35:00,
2013-03-24 20:40:00,45.7,26.1,29.85,NNW,335,6.7,11.5,46,0.00,CLR,,0.03,WeatherDisplay:10.37,2013-03-25 01:40:00,
2013-03-24 20:45:00,45.7,26.1,29.85,North,358,6.4,9.2,46,0.00,CLR,,0.03,WeatherDisplay:10.37,2013-03-25 01:45:00,
2013-03-24 20:50:00,45.5,25.9,29.85,North,358,6.2,6.9,46,0.00,CLR,,0.03,WeatherDisplay:10.37,2013-03-25 01:50:00,
2013-03-24 20:55:00,45.3,25.7,29.85,North,358,5.6,6.9,46,0.00,CLR,,0.03,WeatherDisplay:10.37,2013-03-25 01:55:00,
2013-03-24 21:00:00,45.0,25.4,29.85,NNW,335,6.8,8.1,46,0.00,CLR,,0.03,WeatherDisplay:10.37,2013-03-25 02:00:00,
2013-03-24 21:05:00,45.0,25.4,29.85,NW,313,7.5,10.4,46,0.00,CLR,,0.03,WeatherDisplay:10.37,2013-03-25 02:05:00,
2013-03-24 21:10:00,44.8,25.8,29.86,NNW,335,6.9,8.1,47,0.00,CLR,,0.03,WeatherDisplay:10.37,2013-03-25 02:10:00,
2013-03-24 21:15:00,44.4,25.4,29.86,NNW,335,6.3,9.2,47,0.00,CLR,,0.03,WeatherDisplay:10.37,2013-03-25 02:15:00,
2013-03-24 21:20:00,44.2,25.8,29.87,North,358,5.0,6.9,48,0.00,CLR,,0.03,WeatherDisplay:10.37,2013-03-25 02:20:00,
2013-03-24 21:25:00,44.1,25.6,29.87,North,358,5.3,6.9,48,0.00,CLR,,0.03,WeatherDisplay:10.37,2013-03-25 02:25:00,
2013-03-24 21:30:00,43.7,25.8,29.87,North,358,5.1,6.9,49,0.00,CLR,,0.03,WeatherDisplay:10.37,2013-03-25 02:30:00,
2013-03-24 21:35:00,43.5,25.6,29.87,North,358,4.9,5.8,49,0.00,CLR,,0.03,WeatherDisplay:10.37,2013-03-25 02:35:00,
2013-03-24 21:40:00,43.5,25.6,29.87,North,358,5.0,6.9,49,0.00,CLR,,0.03,WeatherDisplay:10.37,2013-03-25 02:40:00,
2013-03-24 21:45:00,43.3,25.4,29.87,North,358,5.6,9.2,49,0.00,CLR,,0.03,WeatherDisplay:10.37,2013-03-25 02:45:00,
2013-03-24 21:50:00,43.2,24.8,29.88,North,358,6.8,8.1,48,0.00,CLR,,0.03,WeatherDisplay:10.37,2013-03-25 02:50:00,
2013-03-24 21:55:00,43.2,24.8,29.88,North,358,6.9,9.8,48,0.00,CLR,,0.03,WeatherDisplay:10.37,2013-03-25 02:55:00,
2013-03-24 22:00:00,43.2,24.8,29.88,North,358,7.0,9.2,48,0.00,CLR,,0.03,WeatherDisplay:10.37,2013-03-25 03:00:00,
2013-03-24 22:05:00,43.0,24.6,29.88,NNW,335,6.4,9.2,48,0.00,CLR,,0.03,WeatherDisplay:10.37,2013-03-25 03:05:00,
2013-03-24 22:10:00,43.0,24.6,29.89,NW,313,6.1,8.1,48,0.00,CLR,,0.03,WeatherDisplay:10.37,2013-03-25 03:10:00,
2013-03-24 22:15:00,42.8,23.9,29.89,North,358,7.4,11.5,47,0.00,CLR,,0.03,WeatherDisplay:10.37,2013-03-25 03:15:00,
2013-03-24 22:20:00,42.6,23.8,29.89,NNW,335,6.5,8.1,47,0.00,CLR,,0.03,WeatherDisplay:10.37,2013-03-25 03:20:00,
2013-03-24 22:25:00,42.6,23.8,29.89,North,358,6.6,9.2,47,0.00,CLR,,0.03,WeatherDisplay:10.37,2013-03-25 03:25:00,
2013-03-24 22:30:00,42.4,23.6,29.89,North,358,8.1,11.5,47,0.00,CLR,,0.03,WeatherDisplay:10.37,2013-03-25 03:30:00,
2013-03-24 22:35:00,42.3,23.4,29.89,NW,313,7.5,10.4,47,0.00,CLR,,0.03,WeatherDisplay:10.37,2013-03-25 03:35:00,
2013-03-24 22:40:00,42.3,23.4,29.89,NNW,335,7.2,9.2,47,0.00,CLR,,0.03,WeatherDisplay:10.37,2013-03-25 03:40:00,
2013-03-24 22:45:00,42.1,23.3,29.89,North,358,8.7,11.5,47,0.00,CLR,,0.03,WeatherDisplay:10.37,2013-03-25 03:45:00,
2013-03-24 22:50:00,42.1,23.3,29.89,NNW,335,7.2,9.2,47,0.00,CLR,,0.03,WeatherDisplay:10.37,2013-03-25 03:50:00,
2013-03-24 22:56:00,41.9,23.1,29.90,North,358,8.3,10.4,47,0.00,CLR,,0.03,WeatherDisplay:10.37,2013-03-25 03:56:00,
2013-03-24 23:00:00,41.7,23.5,29.90,NNW,335,7.6,10.4,48,0.00,CLR,,0.03,WeatherDisplay:10.37,2013-03-25 04:00:00,
2013-03-24 23:01:00,41.7,23.5,29.90,North,358,7.2,10.4,48,0.00,CLR,,0.03,WeatherDisplay:10.37,2013-03-25 04:01:00,
2013-03-24 23:02:00,41.7,23.5,29.90,North,358,8.2,9.2,48,0.00,CLR,,0.03,WeatherDisplay:10.37,2013-03-25 04:02:00,
2013-03-24 23:07:00,41.4,23.6,29.90,North,358,7.4,9.2,49,0.00,CLR,,0.03,WeatherDisplay:10.37,2013-03-25 04:07:00,
2013-03-24 23:12:00,41.4,23.6,29.90,North,358,6.6,9.2,49,0.00,CLR,,0.03,WeatherDisplay:10.37,2013-03-25 04:12:00,
2013-03-24 23:17:00,41.2,23.4,29.91,NW,313,5.5,8.1,49,0.00,CLR,,0.03,WeatherDisplay:10.37,2013-03-25 04:17:00,
2013-03-24 23:22:00,41.0,23.3,29.91,NNW,335,6.6,8.1,49,0.00,CLR,,0.03,WeatherDisplay:10.37,2013-03-25 04:22:00,
2013-03-24 23:27:00,40.8,23.1,29.91,North,358,5.6,6.9,49,0.00,CLR,,0.03,WeatherDisplay:10.37,2013-03-25 04:27:00,
2013-03-24 23:32:00,40.6,23.4,29.91,North,358,5.1,6.9,50,0.00,CLR,,0.03,WeatherDisplay:10.37,2013-03-25 04:32:00,
2013-03-24 23:37:00,40.5,23.3,29.91,North,358,4.9,8.1,50,0.00,CLR,,0.03,WeatherDisplay:10.37,2013-03-25 04:37:00,
2013-03-24 23:42:00,40.3,23.6,29.92,North,358,4.3,5.8,51,0.00,CLR,,0.03,WeatherDisplay:10.37,2013-03-25 04:42:00,
2013-03-24 23:47:00,40.1,23.4,29.91,North,358,4.4,5.8,51,0.00,CLR,,0.03,WeatherDisplay:10.37,2013-03-25 04:47:00,
2013-03-24 23:52:00,39.9,23.7,29.91,North,358,4.8,6.9,52,0.00,CLR,,0.03,WeatherDisplay:10.37,2013-03-25 04:52:00,
2013-03-24 23:58:00,39.7,23.5,29.91,North,358,5.7,8.1,52,0.00,CLR,,0.03,WeatherDisplay:10.37,2013-03-25 04:58:00,